GFSSGP_sfc_temp_114.txt.gz
Temp
74 81 85 83 69 71 67 74 86 85 84 90 91 89 86 88 81 71 93 93 88 84 78 77 73 74 75 75 76 76 76 76 76 76 75 75 76 76 76 76 76 77 78 78 78 78 78 77 75
83 87 85 79 65 62 68 82 81 87 89 90 89 87 86 84 90 90 88 94 90 84 82 78 73 74 75 75 75 75 76 76 76 76 75 75 76 76 76 76 76 77 78 78 78 78 77 75 74
77 86 77 72 67 63 69 83 86 88 89 87 86 91 89 87 93 92 93 93 91 86 86 78 73 73 74 74 75 75 75 75 75 75 76 76 76 76 76 76 75 76 77 78 78 78 75 74 73
81 81 79 66 65 74 76 83 88 87 88 90 89 84 93 95 94 95 95 94 91 88 87 72 72 73 74 74 75 75 75 74 74 74 75 76 76 76 76 75 75 76 77 77 78 77 75 73 72
83 80 66 66 68 76 83 88 89 85 86 87 89 84 86 94 99 96 94 93 88 85 78 76 71 73 74 75 75 74 74 74 74 74 75 75 75 75 75 74 75 75 76 76 76 75 73 71 71
74 77 63 62 69 78 85 89 89 86 87 87 85 85 87 96 95 92 92 88 86 80 79 75 73 72 73 74 74 73 73 73 73 74 74 74 74 74 74 74 74 74 75 75 74 73 72 71 71
72 70 64 66 69 75 83 92 85 84 84 85 89 81 87 91 94 92 91 88 84 83 79 75 75 74 72 72 72 72 72 72 73 73 73 73 72 72 73 74 73 74 74 72 72 71 71 70 70
77 73 65 69 69 71 84 88 89 85 84 94 94 81 81 91 93 93 91 89 84 83 80 77 76 75 74 73 71 71 71 71 71 72 72 71 71 71 72 72 73 73 74 72 72 70 69 69 68
82 65 62 66 69 73 85 83 87 90 86 89 92 89 89 91 92 90 87 86 83 82 81 80 79 77 76 76 74 70 70 70 70 71 71 69 73 74 74 73 73 73 72 71 70 69 69 67 67
72 65 64 75 78 77 82 84 86 83 82 83 87 91 91 90 89 86 86 83 81 81 81 82 80 79 79 82 75 74 74 73 73 74 73 73 74 75 76 74 71 71 71 70 69 69 67 67 66
71 64 72 75 80 82 81 82 88 81 78 83 83 85 88 88 87 86 87 87 84 85 84 84 80 79 80 80 78 78 77 75 74 74 74 74 75 74 73 71 71 69 70 71 68 66 68 68 67
66 73 74 76 80 80 78 83 81 82 82 88 90 88 88 86 85 87 87 88 88 86 86 85 82 79 78 82 80 80 78 76 75 75 74 74 74 72 72 72 71 71 70 70 70 68 69 69 68
69 71 76 79 78 79 80 77 78 79 85 88 89 89 86 85 86 87 89 91 91 88 86 85 82 79 79 78 79 78 77 76 76 76 75 75 74 72 72 71 71 72 72 72 68 68 67 69 67
72 73 74 77 77 78 74 75 77 79 83 83 83 84 85 85 86 86 87 86 86 88 87 84 83 80 81 78 77 77 77 75 75 75 75 75 74 73 71 70 71 70 70 69 68 67 67 67 66
71 65 71 73 76 74 77 69 70 79 82 79 81 82 84 85 87 85 86 84 85 86 87 82 81 80 79 79 78 78 77 76 75 74 74 75 74 73 72 71 69 69 69 69 67 67 66 65 66
64 64 57 69 73 74 73 61 73 79 78 77 79 80 81 83 85 88 88 89 89 89 86 85 86 81 78 78 78 79 78 76 76 75 74 73 74 74 71 70 69 69 68 67 65 65 64 64 63
59 53 56 61 72 71 69 62 72 79 78 77 78 79 81 81 85 87 87 88 90 89 85 83 81 78 76 76 78 77 76 75 76 76 75 74 73 73 72 71 70 69 67 65 65 65 64 63 63
49 52 56 58 67 70 66 65 72 76 77 75 78 80 81 82 83 87 87 89 89 88 85 83 81 80 77 76 76 78 76 76 76 75 75 73 73 72 70 70 69 69 67 65 65 64 64 63 62
57 57 56 62 69 66 65 66 71 76 75 75 77 79 80 81 85 87 84 83 83 82 81 82 81 78 77 76 74 75 74 74 74 74 73 71 71 70 70 69 67 67 65 63 64 62 60 60 61
56 55 56 64 68 62 60 59 69 73 74 74 76 77 78 80 83 85 85 81 80 80 80 81 81 80 78 78 77 76 76 73 73 71 73 74 72 71 70 68 65 65 64 62 61 60 58 59 61
55 53 56 57 56 53 57 53 59 70 74 76 78 79 80 78 79 82 83 78 77 78 78 80 80 80 78 78 77 74 69 68 67 67 70 73 72 71 69 67 65 64 63 61 61 60 59 57 58
51 61 59 58 51 37 55 40 56 63 66 71 73 75 77 78 80 82 80 77 76 77 79 79 79 79 80 77 76 69 66 65 67 67 69 71 70 70 69 68 64 63 62 60 60 60 60 59 57
55 63 59 57 50 44 47 43 51 60 58 63 71 75 76 77 77 79 78 79 79 78 76 77 77 77 77 77 74 69 68 69 69 67 66 67 69 69 69 68 64 62 61 61 60 59 59 60 59
64 57 55 53 48 35 44 44 47 55 59 63 71 75 75 75 75 76 78 79 78 78 74 75 75 76 76 75 74 71 67 68 67 67 65 66 66 67 68 66 64 62 61 60 60 60 60 59 59
57 50 36 31 33 32 49 44 49 63 68 69 71 73 73 73 73 72 75 76 74 73 73 73 73 73 74 73 72 71 69 68 68 69 68 67 65 64 65 65 63 62 61 60 61 59 59 58 57
51 49 36 28 29 36 49 42 51 65 71 74 72 72 72 72 72 73 74 72 70 70 69 68 68 69 71 70 71 70 69 68 69 70 71 67 66 65 66 65 64 62 62 60 60 59 58 58 58
50 44 53 43 43 38 46 51 63 67 66 69 68 69 68 71 72 71 72 69 67 66 66 64 65 66 68 67 69 68 66 66 68 70 69 69 68 68 66 64 62 62 62 60 59 58 58 58 58
55 57 41 44 32 30 36 45 46 57 60 64 63 67 69 71 70 70 68 66 67 66 64 62 62 63 63 63 65 67 66 67 67 68 67 68 68 67 63 62 61 60 60 60 59 58 58 57 58
50 48 50 49 46 36 33 36 55 58 60 53 65 66 62 64 64 65 66 66 65 65 63 61 59 57 56 57 60 66 65 66 66 66 66 67 67 66 64 62 61 60 59 59 58 58 57 57 57
58 52 52 41 40 45 42 41 57 58 64 65 58 62 60 61 61 62 62 61 61 61 60 57 55 54 52 52 62 64 63 64 65 64 65 65 66 66 64 62 60 59 58 58 57 56 57 57 56

GFSSGP_sfc_temp_117.txt.gz
Temp
64 67 67 66 52 48 44 56 69 70 72 75 79 78 74 73 73 60 78 78 76 73 74 74 73 75 75 75 75 75 75 76 76 75 75 75 76 76 76 76 76 77 78 78 78 77 77 76 75
68 74 67 60 47 40 47 65 65 72 77 79 81 80 79 72 80 78 76 79 76 74 74 73 73 74 74 74 75 75 76 76 75 75 75 75 76 76 76 76 76 77 78 78 78 78 76 75 74
70 74 59 52 46 44 48 62 67 75 79 78 74 81 79 76 82 81 81 79 77 76 74 74 72 73 74 74 74 74 75 74 75 75 76 76 76 76 76 75 75 76 77 78 78 77 75 73 72
67 63 61 50 47 55 61 69 74 76 76 79 76 75 81 85 83 83 83 81 78 77 74 71 71 72 74 74 74 74 74 76 74 74 75 76 76 76 76 75 75 76 77 77 77 76 74 72 72
65 60 49 45 50 61 68 74 76 75 76 79 77 71 76 81 87 86 83 82 77 73 71 71 71 72 73 74 74 74 75 75 73 74 74 75 75 75 75 74 74 74 76 76 76 74 72 72 71
57 58 44 46 54 64 71 76 78 77 79 79 78 74 74 84 85 83 82 77 74 71 71 71 72 72 72 73 73 73 73 73 73 73 73 74 74 74 74 74 74 74 74 74 74 72 72 71 71
55 51 47 50 55 61 70 77 75 77 77 74 82 71 76 78 83 82 79 75 74 72 70 69 70 72 71 71 71 71 71 72 72 72 72 72 72 72 73 73 73 72 72 72 72 71 70 70 70
60 55 51 55 56 58 72 77 79 74 69 81 82 71 69 77 81 81 79 75 73 71 70 69 69 69 68 69 70 70 70 71 72 72 72 71 71 71 71 72 72 73 72 72 72 70 69 70 69
66 54 51 53 57 62 74 73 78 80 75 76 79 77 79 83 81 79 75 72 72 72 70 69 69 69 68 68 70 70 70 70 70 71 74 69 70 70 71 70 71 72 71 71 71 69 68 68 67
58 52 55 62 66 67 73 74 74 70 70 74 76 78 81 82 80 76 74 72 71 70 70 71 69 69 69 74 68 68 70 69 70 69 69 69 69 69 72 71 70 71 70 70 69 68 67 66 64
61 54 62 66 69 71 69 71 76 67 65 73 74 74 77 78 76 76 75 75 74 74 74 72 71 71 70 73 68 68 68 68 68 69 69 68 70 69 70 67 68 67 70 67 67 66 65 65 63
56 63 65 66 70 69 68 70 70 64 72 77 79 77 78 77 75 76 75 76 75 75 75 74 73 72 72 71 70 70 69 68 68 68 69 68 67 67 67 67 67 67 65 65 65 64 64 65 64
58 62 66 69 70 70 72 69 69 70 74 78 78 78 74 75 75 77 78 77 79 77 77 76 75 74 74 71 72 72 71 70 70 69 70 69 68 67 67 66 67 67 67 66 64 64 64 64 64
63 63 65 68 68 70 68 69 65 72 74 76 76 71 71 74 76 76 75 76 75 80 79 78 77 76 76 75 71 71 72 71 70 69 71 69 68 67 67 66 66 66 66 65 65 65 64 63 63
63 56 61 64 66 66 70 62 65 70 73 71 71 73 72 74 75 75 76 76 76 76 81 78 76 76 76 76 72 69 72 72 69 70 69 71 69 68 67 67 65 66 66 65 64 63 63 63 65
53 54 48 60 64 67 65 55 68 71 70 69 69 69 72 73 75 75 75 77 77 76 75 78 79 76 75 75 74 72 70 71 70 68 68 70 70 69 67 67 65 65 64 64 64 64 62 62 62
48 41 46 52 63 63 62 58 68 69 72 70 71 72 72 73 73 74 76 76 79 77 78 77 76 75 74 71 73 70 69 69 70 68 68 68 69 68 68 67 65 65 64 63 63 61 62 62 62
39 41 44 47 56 61 59 59 61 67 67 69 70 72 72 75 76 79 76 76 83 79 77 75 77 76 74 73 70 70 68 67 68 70 70 68 69 68 67 66 66 65 63 62 62 62 60 62 63
46 45 45 51 59 58 57 59 63 65 68 66 66 68 68 74 78 80 78 76 73 70 72 70 72 73 71 68 67 65 69 68 65 67 69 69 70 70 68 67 66 66 64 63 63 63 62 60 61
44 41 44 53 60 58 58 55 62 61 63 69 68 64 67 68 72 79 79 70 71 70 70 70 71 70 71 71 71 68 66 67 70 66 66 68 67 67 69 68 65 64 63 63 62 61 59 59 61
43 42 43 45 48 52 50 47 51 59 63 67 71 70 68 69 69 72 72 68 67 68 70 71 70 70 69 71 68 64 64 63 62 63 64 66 67 67 67 67 65 64 62 61 61 61 60 58 59
38 48 49 48 46 37 50 33 47 56 58 61 64 63 65 69 72 73 70 66 66 67 68 69 70 70 71 69 66 64 63 60 61 62 63 68 67 68 68 67 64 62 61 61 62 61 60 59 57
43 49 48 50 44 39 42 36 40 51 51 57 60 64 66 69 72 70 70 69 68 66 65 67 69 69 70 68 66 64 62 64 61 61 62 63 66 68 68 67 63 62 61 59 61 60 60 60 58
53 47 48 47 41 29 38 36 36 44 52 57 62 67 70 68 68 71 71 67 64 64 63 63 63 65 66 66 65 63 62 62 60 61 61 63 65 65 65 66 63 63 62 61 60 60 59 59 59
50 43 31 27 28 26 44 38 42 52 58 61 62 66 66 68 67 66 64 62 62 60 60 63 63 63 62 62 62 62 63 62 62 62 62 62 64 65 65 65 62 61 61 61 61 59 59 59 59
46 42 28 22 23 29 44 34 41 55 61 63 67 66 64 63 65 63 61 61 60 60 59 58 60 60 60 61 60 60 62 64 64 65 65 64 65 65 66 64 63 62 61 61 60 59 59 59 58
44 39 45 36 38 31 37 43 53 59 60 63 63 62 60 62 61 61 62 61 59 58 58 56 56 57 57 56 56 56 59 62 64 65 66 64 67 67 64 63 62 61 61 60 60 59 58 58 58
49 51 34 36 27 26 34 38 41 51 54 55 51 54 58 59 59 59 58 58 59 58 56 54 54 54 54 54 52 54 56 58 64 63 62 63 66 66 64 63 62 61 60 60 59 58 58 57 57
44 43 44 39 40 30 27 31 52 51 55 51 50 51 52 53 54 54 55 56 55 55 55 53 52 51 51 51 50 50 50 56 63 61 61 63 65 65 63 62 61 60 59 59 58 58 58 57 57
49 44 45 34 34 38 34 32 51 50 52 52 52 52 52 52 52 52 52 51 51 51 51 49 48 48 48 48 48 49 50 61 61 61 61 64 65 63 62 60 60 59 59 59 58 57 57 56 56

GFSSGP_sfc_temp_120.txt.gz
Temp
62 63 64 64 51 45 40 48 57 65 65 72 76 74 73 68 70 61 73 77 74 72 73 74 73 75 75 75 75 75 75 75 75 75 75 75 76 76 76 76 76 77 77 78 77 77 77 76 75
64 70 64 55 44 37 43 53 60 66 72 76 77 75 73 68 73 71 72 75 74 72 73 73 73 74 74 74 74 75 75 75 75 75 75 75 76 76 76 76 75 76 77 78 78 77 76 75 74
67 71 56 49 41 40 44 57 64 69 75 74 70 75 75 72 76 75 76 74 73 72 73 73 72 73 74 74 74 74 75 74 74 75 75 76 76 76 76 75 75 76 78 78 78 77 75 73 72
64 61 56 45 43 49 54 59 66 68 73 75 71 71 77 80 78 77 75 74 72 72 73 71 71 72 74 74 74 74 74 73 74 74 75 75 76 76 75 74 75 76 77 77 77 75 73 72 72
60 54 45 40 45 53 60 64 66 68 70 75 75 69 71 77 79 77 75 75 71 70 70 71 70 72 73 74 74 74 73 73 73 74 74 75 75 75 74 74 74 75 75 76 75 74 72 71 71
54 52 40 40 50 57 61 68 68 70 74 76 73 71 71 78 77 76 76 73 72 69 69 70 71 72 72 73 73 73 73 72 72 73 73 74 74 74 74 73 74 74 74 74 73 72 72 71 71
50 45 42 44 47 53 62 66 67 70 73 72 77 67 68 75 77 77 74 71 69 69 68 68 70 71 71 70 71 71 71 71 71 72 72 72 72 72 73 73 73 73 73 73 72 71 71 71 70
55 49 42 46 51 51 65 68 70 70 71 77 77 67 65 75 76 74 72 69 68 68 68 68 67 69 70 71 70 70 70 70 70 71 71 70 70 71 72 72 72 72 72 72 71 70 70 70 69
57 44 47 49 51 57 66 65 70 76 73 76 76 73 78 77 75 71 68 68 67 67 67 67 67 67 66 68 70 70 70 70 70 70 70 69 69 70 70 70 70 72 71 71 71 69 68 68 68
52 46 49 57 61 61 66 66 67 66 68 70 69 74 79 76 74 71 69 67 67 66 66 67 67 67 66 71 70 70 71 71 70 70 72 69 68 68 70 70 69 71 70 70 70 68 68 67 65
51 50 57 61 62 65 64 65 69 62 65 70 69 71 75 75 74 72 71 70 69 69 68 68 67 67 67 69 67 68 69 70 70 69 68 68 68 68 67 66 68 67 69 67 67 66 65 65 63
49 59 60 61 65 63 61 63 64 61 67 74 71 74 75 74 72 73 72 72 69 68 69 68 68 68 68 67 67 67 67 68 68 69 68 67 67 66 66 65 65 65 65 65 64 63 63 63 63
52 56 60 63 65 65 66 64 64 66 71 75 74 75 70 74 75 75 76 75 73 71 71 69 69 69 69 68 68 67 67 67 67 67 68 68 67 67 66 65 65 65 64 64 63 63 63 63 63
56 56 58 61 62 64 62 63 64 68 70 72 72 70 71 73 71 71 74 74 73 75 73 72 70 71 71 70 69 68 68 68 67 67 68 68 68 67 66 65 65 65 64 64 64 63 62 62 62
54 47 53 57 60 60 63 57 60 70 70 68 70 69 69 71 70 70 73 73 75 75 76 73 72 72 72 71 70 69 69 69 68 68 68 68 68 67 67 65 65 65 65 64 63 62 61 62 62
46 46 39 53 57 61 58 49 63 70 68 69 66 67 68 70 72 72 71 72 72 77 75 75 76 72 72 73 70 70 70 69 69 69 69 69 68 68 66 66 65 65 65 64 63 62 62 62 62
41 33 38 44 55 55 56 51 63 66 68 68 68 65 67 66 69 71 72 71 72 72 76 75 75 72 72 74 72 70 69 70 70 69 69 69 69 68 67 66 65 65 64 63 63 62 63 61 61
33 34 38 39 47 52 52 53 61 63 65 68 68 64 64 67 68 72 72 72 72 72 72 75 75 73 74 74 73 67 67 68 69 68 69 67 69 68 67 66 65 65 63 61 62 62 59 62 63
40 37 35 42 49 47 50 52 58 61 61 64 65 63 64 67 73 72 73 74 70 68 66 72 73 73 73 70 69 66 66 65 66 68 69 68 68 68 66 66 66 66 64 62 62 62 61 61 63
39 35 34 42 48 47 47 50 57 61 62 65 64 61 64 63 69 72 73 67 66 67 66 69 72 72 73 71 71 66 65 65 67 66 67 69 67 67 68 66 65 66 64 61 62 63 60 60 62
36 34 34 35 44 47 45 43 49 56 61 62 62 63 64 64 66 71 73 65 64 64 63 66 68 69 70 70 65 63 63 62 62 62 64 66 67 67 68 66 66 65 65 63 63 63 61 59 60
27 41 40 38 37 30 43 30 42 51 54 57 60 58 59 63 66 67 62 61 64 61 65 67 66 65 67 65 64 62 64 65 62 64 64 64 66 66 67 65 65 65 64 63 63 62 62 60 58
32 40 39 39 39 36 38 33 38 47 49 55 57 58 59 62 65 65 61 61 60 60 60 61 63 63 64 63 64 63 63 63 61 61 63 64 65 67 67 66 66 64 63 62 62 61 60 61 59
44 39 40 41 38 27 37 35 34 42 52 54 57 59 61 62 62 62 62 61 57 57 59 59 60 59 60 60 59 59 60 61 60 60 61 61 62 65 66 66 65 65 63 61 61 61 61 60 59
41 36 25 23 24 26 39 34 40 48 52 55 57 57 61 63 61 58 57 56 56 55 57 59 58 57 58 57 55 54 55 57 60 61 62 62 61 60 62 64 63 63 63 62 62 60 60 60 59
39 37 26 20 25 27 39 31 38 52 57 57 56 57 59 58 59 56 55 55 54 54 53 54 54 54 55 54 52 53 54 54 57 61 62 62 63 65 64 63 63 63 62 61 61 60 60 59 59
40 33 43 36 35 29 33 39 49 52 51 53 54 54 53 54 52 53 54 53 52 52 51 50 51 52 52 52 51 50 50 51 54 56 63 63 64 64 65 65 63 62 61 61 60 59 59 58 58
43 47 34 35 25 23 29 32 34 41 43 47 46 47 48 49 49 50 49 50 50 50 50 50 49 48 48 48 48 49 49 50 51 53 57 63 63 63 63 63 63 62 61 60 60 59 59 58 58
39 37 37 38 32 26 26 31 45 46 45 43 45 46 45 46 46 46 47 48 49 48 48 47 46 45 45 45 46 46 46 48 51 51 54 62 63 63 63 63 62 61 60 60 59 58 58 57 57
46 39 39 30 29 32 32 30 45 46 46 45 45 45 45 45 45 45 45 45 44 44 43 43 43 43 43 44 44 44 45 47 49 52 57 62 62 62 63 64 62 61 60 59 58 57 58 57 56

GFSSGP_sfc_temp_123.txt.gz
Temp
61 62 62 62 50 43 38 46 51 58 62 67 70 69 69 65 67 60 70 75 73 72 73 73 73 74 74 75 75 75 75 76 76 75 75 75 75 76 76 76 76 77 77 78 77 77 77 76 75
62 66 61 53 42 36 42 48 55 60 67 71 71 72 69 67 70 69 70 73 74 72 72 73 73 74 74 74 74 75 75 75 75 75 75 75 76 76 76 75 75 76 77 78 77 77 76 75 74
64 66 56 47 37 39 43 50 58 65 69 69 67 73 71 70 72 72 73 73 72 72 72 72 72 73 74 74 74 74 74 74 74 75 75 76 76 76 76 75 75 76 77 77 77 76 75 73 72
62 59 53 43 40 45 49 53 60 63 69 69 68 68 74 77 74 75 73 72 71 70 72 71 71 72 73 74 74 74 74 73 73 74 75 76 76 76 75 74 75 76 77 77 76 75 73 72 71
58 52 42 36 41 49 55 59 60 62 64 69 69 67 69 75 75 72 71 72 70 69 70 70 70 72 73 74 74 73 73 72 73 74 74 75 75 75 74 74 74 75 76 75 74 73 72 71 71
52 50 38 37 45 53 58 62 64 64 67 70 68 66 68 73 71 71 71 70 70 68 69 70 71 71 72 73 73 72 72 72 72 73 73 74 74 74 74 73 73 74 74 73 73 72 72 71 71
49 43 38 39 44 51 58 62 62 65 66 67 72 65 66 69 72 71 69 68 68 68 68 69 70 71 71 70 70 70 71 71 71 72 72 72 72 72 72 73 73 73 73 73 72 71 70 71 70
53 46 38 44 48 49 62 63 65 64 65 72 71 63 62 69 71 68 66 65 65 67 67 69 70 71 71 70 69 70 70 70 70 71 70 70 70 71 71 71 72 72 72 72 72 70 70 70 68
55 42 44 45 48 54 63 61 66 70 68 69 71 67 72 72 70 67 65 63 63 65 66 68 69 70 71 72 70 70 70 70 69 70 70 68 69 70 70 70 70 71 71 71 70 69 68 67 67
49 39 46 53 57 58 63 62 62 63 64 66 69 72 71 71 69 66 65 64 63 64 65 67 68 68 69 72 72 71 72 71 71 70 70 69 67 68 69 69 69 70 70 70 69 69 67 67 64
47 47 54 56 59 60 57 59 64 60 60 65 65 69 69 69 69 68 69 68 66 66 66 66 67 67 68 70 71 70 71 71 70 69 68 68 68 67 67 67 67 67 68 67 67 66 65 64 63
45 53 54 53 60 59 57 58 61 57 63 67 69 71 69 69 69 69 69 69 67 66 66 66 66 66 66 67 69 70 70 70 70 70 66 67 69 67 65 66 65 65 65 65 64 63 63 63 62
45 50 54 56 58 59 61 59 60 62 69 69 71 71 68 70 71 72 73 71 69 67 67 66 66 66 67 66 67 69 69 69 69 70 68 67 69 68 66 65 65 65 64 64 63 62 62 62 62
48 49 49 53 53 56 56 57 58 64 69 68 70 69 69 68 71 72 70 69 68 70 68 68 67 67 67 67 66 66 66 67 67 68 69 68 68 68 65 65 64 64 64 63 63 62 61 61 61
49 43 48 50 52 51 57 51 53 64 68 66 66 68 69 68 71 69 71 70 70 71 71 68 68 68 67 67 66 66 67 66 66 66 67 68 67 66 65 65 64 64 63 63 62 61 61 60 61
42 41 36 48 50 52 51 44 58 62 63 64 65 68 66 70 68 73 73 73 73 73 71 70 72 69 68 68 67 67 67 66 67 66 66 67 67 67 65 65 64 64 63 63 62 61 59 60 60
36 29 34 39 49 48 48 45 54 60 62 63 66 67 67 69 68 66 71 73 72 74 73 69 70 69 69 69 69 67 67 67 67 66 66 67 67 67 66 65 64 64 63 63 62 60 61 61 61
31 30 33 34 43 45 42 42 50 56 59 61 64 67 67 66 70 71 68 69 72 72 74 72 71 70 70 70 67 65 65 65 66 67 67 67 67 67 66 65 64 64 63 62 62 62 61 61 62
38 35 32 37 44 41 40 42 46 52 54 58 62 64 64 67 70 72 71 69 68 69 68 69 69 70 69 69 66 64 65 66 65 67 67 67 67 67 66 65 64 65 64 62 62 61 61 61 63
37 33 32 39 43 41 39 38 46 51 51 58 61 64 62 64 64 69 70 68 67 65 67 68 69 70 70 71 71 68 68 65 67 66 67 67 67 67 67 66 65 66 65 63 62 63 60 61 62
36 33 33 34 40 41 37 34 40 49 54 59 63 65 68 62 65 69 70 69 63 62 60 68 70 70 70 70 65 63 63 62 62 63 65 67 66 67 67 66 65 64 64 63 63 63 62 59 61
29 41 40 34 29 23 36 22 36 43 49 54 60 60 59 60 62 65 62 60 56 54 59 60 61 61 63 64 63 63 63 61 64 65 66 65 66 66 67 66 65 65 65 64 63 64 63 62 59
35 42 36 34 30 29 30 27 33 43 44 50 53 58 57 56 57 55 56 57 56 57 58 58 59 59 60 60 62 61 61 61 61 61 62 62 64 65 66 67 65 65 64 64 64 62 62 62 60
45 39 35 35 30 20 28 29 27 38 45 49 53 55 54 54 54 55 57 57 55 56 56 56 56 56 56 56 56 56 55 56 58 60 60 61 62 64 65 66 65 66 64 63 63 62 62 61 61
39 31 20 18 18 20 36 31 33 44 48 49 50 53 55 56 54 53 51 51 51 51 52 54 53 52 52 52 52 53 53 54 54 58 60 60 60 61 63 63 63 64 63 63 63 62 61 61 60
36 33 25 14 20 25 38 28 36 47 55 55 55 53 52 49 49 49 49 49 50 49 49 50 50 49 50 50 49 50 50 51 52 55 58 60 62 63 64 63 63 64 63 61 62 61 61 60 60
36 31 42 32 31 26 31 38 43 46 47 47 47 47 45 46 46 46 48 48 47 47 47 47 47 47 47 48 48 47 47 47 48 50 53 55 62 63 63 62 63 63 63 62 61 61 60 60 60
39 43 32 33 22 23 26 28 34 39 40 42 41 41 42 43 43 45 45 45 45 46 46 46 46 45 46 46 46 47 45 46 47 48 49 52 56 62 62 62 62 63 62 62 61 61 60 59 59
36 34 36 37 32 26 24 30 44 40 40 39 40 40 40 40 41 42 43 44 43 43 43 43 42 42 43 43 43 43 43 44 45 46 49 51 54 57 62 62 62 62 61 61 60 60 59 58 58
43 35 36 28 29 32 30 30 42 42 42 42 41 41 41 41 40 40 41 41 41 40 40 39 40 39 40 41 41 42 43 44 44 45 47 51 54 57 62 63 62 63 62 61 60 59 58 58 57

GFSSGP_sfc_temp_126.txt.gz
Temp
60 60 61 61 50 43 38 45 46 54 56 62 66 66 64 64 65 58 69 73 72 71 72 73 73 74 74 75 75 75 75 76 76 75 75 75 76 75 75 76 76 77 78 78 78 77 77 77 75
61 64 60 51 42 37 42 45 51 53 63 66 69 67 66 66 69 68 68 72 73 72 72 72 73 73 74 74 74 75 76 76 75 75 75 75 75 75 75 75 75 76 77 77 77 77 76 75 73
63 64 55 46 36 39 41 49 53 59 64 63 65 68 68 68 72 70 71 72 73 72 72 72 72 73 74 74 74 74 75 75 75 75 75 76 76 76 75 75 75 76 77 77 77 76 75 73 72
61 58 52 43 38 45 47 53 56 59 63 64 66 64 71 73 71 72 71 72 71 70 71 71 71 72 73 74 74 74 74 73 74 74 75 76 76 75 75 74 74 75 77 77 76 75 73 72 71
56 50 41 35 40 47 50 55 56 58 60 63 63 62 67 73 71 70 70 72 70 69 70 71 70 72 73 74 74 73 73 73 73 74 74 75 75 75 74 74 74 75 75 75 74 73 72 71 71
51 48 37 34 40 51 54 58 60 60 62 66 64 63 68 71 69 69 69 68 69 68 69 70 71 72 72 73 73 72 72 72 72 73 73 74 74 73 73 73 73 73 74 73 73 72 71 71 70
48 43 37 37 42 49 55 59 59 61 61 63 68 61 66 68 69 68 66 65 66 67 68 68 70 71 71 70 71 70 71 71 72 72 72 72 72 72 73 73 73 73 73 72 72 71 70 71 69
50 45 35 41 44 46 60 60 61 59 59 68 68 61 63 66 67 65 64 63 64 65 66 68 68 70 70 71 69 69 70 70 70 71 71 70 70 71 71 72 72 72 72 72 71 70 70 70 68
51 40 34 40 46 50 63 59 62 66 63 63 68 63 70 68 66 64 62 62 64 66 68 69 70 72 72 72 70 69 70 70 69 70 70 68 70 70 70 70 71 71 71 71 70 69 68 68 66
46 36 41 50 52 55 59 59 60 59 61 61 64 67 71 66 65 64 63 63 63 64 67 69 70 71 72 73 72 70 71 71 71 70 70 69 68 68 69 69 70 70 70 70 69 68 67 66 65
41 40 47 49 54 54 51 55 59 55 56 60 62 63 66 64 64 64 65 67 65 65 65 69 70 71 71 72 72 72 72 71 72 71 70 69 67 67 68 66 68 67 69 67 67 66 65 64 65
40 47 47 48 51 51 50 54 55 57 59 65 65 66 66 64 64 66 66 66 63 64 64 68 69 69 70 72 72 72 71 71 70 70 69 69 69 67 66 66 66 66 65 65 65 64 64 63 62
42 43 48 50 50 49 53 50 53 56 63 67 68 68 64 66 66 69 69 66 64 63 64 65 67 67 69 70 71 71 71 71 72 72 68 69 70 69 66 65 65 65 64 64 63 63 62 62 62
46 46 47 48 48 50 49 51 52 57 63 64 66 67 65 65 67 68 70 67 65 66 64 65 65 66 67 68 70 70 71 71 70 70 70 68 70 70 67 65 64 63 64 63 63 63 61 61 61
46 40 46 47 46 46 50 45 47 58 61 61 63 66 67 65 68 69 71 70 69 68 68 65 65 65 65 66 67 68 69 70 69 70 70 70 70 69 68 66 64 63 63 63 62 61 61 60 61
40 38 30 42 46 49 44 40 51 55 54 55 59 63 65 67 66 70 72 72 71 71 69 68 69 66 65 66 65 65 66 67 67 68 69 69 69 68 65 65 64 63 62 62 61 60 59 59 60
32 27 30 37 45 45 42 39 47 52 53 53 56 59 63 66 66 67 72 72 72 71 70 68 68 66 66 66 66 65 64 64 64 64 65 68 68 65 64 64 63 63 62 61 61 59 60 61 61
27 28 27 31 37 43 39 39 46 50 51 51 53 55 58 63 68 71 66 71 75 72 72 70 69 68 67 66 65 64 64 65 65 65 65 65 66 66 65 64 63 64 63 62 61 62 61 62 62
36 33 31 36 42 39 38 38 42 47 48 48 50 53 56 60 68 71 70 70 71 72 71 69 68 68 67 66 64 64 64 66 65 66 66 66 66 66 66 65 63 63 63 63 63 63 61 61 62
34 30 30 37 42 40 37 37 43 45 46 48 49 51 55 57 64 69 70 64 64 67 69 69 69 69 68 69 68 64 66 66 66 67 66 66 66 66 66 66 64 64 63 63 63 63 60 61 62
34 31 33 33 39 40 36 33 37 43 46 49 51 54 56 57 61 65 67 65 63 61 64 67 68 70 68 69 65 61 62 63 64 64 65 66 66 66 66 66 65 64 64 63 63 63 62 60 61
28 39 39 36 32 26 34 21 34 39 41 46 49 52 55 58 63 66 65 55 54 53 56 59 61 62 63 64 65 63 64 63 63 65 66 66 66 66 67 66 65 65 65 63 63 64 64 63 59
32 41 37 37 31 27 30 23 31 38 37 42 48 52 56 60 62 53 53 53 53 53 53 55 56 56 58 60 63 62 60 61 60 61 63 63 64 65 66 66 65 65 65 64 63 63 63 63 62
44 38 36 32 27 19 30 25 28 32 40 46 46 47 48 50 51 52 53 53 52 53 52 53 53 54 55 56 56 57 57 57 60 61 60 61 62 64 64 65 65 66 66 65 64 64 63 62 63
37 30 21 18 17 22 36 26 30 41 46 48 46 44 46 46 45 45 45 45 46 46 49 50 50 50 51 51 52 51 52 54 55 57 61 60 61 62 64 64 65 65 64 64 64 63 63 62 62
36 32 25 13 22 24 36 25 33 44 46 46 45 44 44 42 43 42 43 43 45 46 46 47 47 46 48 49 48 48 49 50 52 53 54 57 60 61 63 64 65 65 65 63 63 63 63 62 62
35 31 37 30 32 24 28 37 43 43 41 42 41 41 40 41 42 41 41 42 43 42 42 43 44 45 46 46 46 46 47 47 46 47 49 51 54 59 61 61 63 64 64 62 62 61 61 61 61
39 41 29 30 19 21 28 28 27 36 36 37 37 37 39 41 41 41 41 41 41 41 41 42 43 43 43 44 44 44 44 45 45 45 46 48 50 53 55 61 61 63 63 63 62 62 61 60 60
34 33 34 35 30 25 23 28 32 35 37 36 36 37 37 38 39 39 40 41 41 41 42 41 41 40 40 41 41 42 42 43 44 44 45 46 48 50 53 55 61 62 63 63 62 61 61 60 60
39 35 34 29 28 31 29 25 34 34 35 35 37 38 39 39 37 38 37 39 38 38 38 38 39 38 39 40 41 41 43 43 42 42 44 45 46 49 52 56 57 62 62 62 61 60 60 59 58

GFSSGP_sfc_temp_129.txt.gz
Temp
70 71 73 73 65 60 55 59 60 63 66 74 74 74 74 75 73 71 79 81 80 80 80 78 73 74 74 75 75 75 76 76 76 76 76 76 76 76 76 76 76 77 78 78 78 78 78 77 75
72 73 73 66 60 56 60 60 61 66 71 73 75 74 73 75 81 82 78 79 81 80 80 80 73 74 74 74 75 75 76 76 76 76 76 76 76 76 76 76 75 76 77 78 78 78 77 75 74
73 72 70 63 56 59 61 61 65 67 71 71 74 78 77 77 82 81 80 79 80 80 80 79 73 73 74 74 74 75 75 75 75 75 76 76 76 76 76 75 75 76 77 78 78 77 75 73 72
72 72 64 58 55 60 60 65 64 68 72 73 75 73 80 85 81 81 79 79 79 79 81 73 71 72 74 74 74 74 74 74 74 75 75 76 76 76 75 74 74 76 77 77 77 75 73 72 71
69 66 58 53 55 58 61 64 67 68 68 69 75 73 75 82 78 77 78 78 78 78 79 77 71 72 73 74 74 74 73 73 73 74 75 75 75 75 74 74 74 75 76 76 74 73 72 71 71
65 63 53 51 54 60 65 66 67 68 69 72 72 73 76 79 78 75 76 77 77 76 76 77 72 72 73 73 73 73 72 73 73 73 74 74 74 74 74 73 73 74 74 73 73 72 71 71 70
61 58 52 51 52 58 65 68 67 68 70 72 76 71 78 80 77 74 74 75 75 75 76 76 77 75 71 71 71 71 71 72 72 72 72 72 72 72 73 73 73 73 73 72 72 71 71 70 70
62 60 49 52 54 57 66 68 71 69 69 77 78 70 72 78 74 74 74 73 74 74 75 75 75 76 76 76 69 69 70 70 71 71 71 70 71 71 72 72 72 72 72 72 71 70 70 69 69
62 55 49 53 54 60 67 64 71 73 69 72 75 75 79 77 72 73 72 71 70 70 74 75 75 76 76 75 74 70 70 70 70 71 70 70 79 78 77 74 71 71 71 71 71 69 69 67 67
60 51 52 58 60 58 60 61 63 64 66 66 68 74 79 75 73 73 73 73 69 70 71 74 75 76 77 76 74 75 76 78 78 78 77 78 78 79 79 74 70 70 70 70 69 69 67 69 77
53 52 54 57 58 57 56 58 64 60 60 67 65 69 73 77 78 73 74 75 73 74 73 73 74 75 76 76 75 74 76 76 76 76 77 77 77 77 78 77 78 77 72 78 75 75 79 76 76
49 53 54 55 55 55 55 59 57 60 62 68 69 69 71 73 75 76 75 76 75 73 73 74 75 74 74 76 75 74 73 74 74 74 73 74 75 75 76 78 78 77 78 78 78 76 77 76 71
49 50 53 54 55 55 57 55 56 59 65 67 68 69 70 72 75 78 78 79 77 74 73 72 73 73 73 73 74 74 72 72 73 73 72 73 73 73 73 76 77 78 78 78 75 77 76 75 74
50 51 51 54 54 55 52 55 56 61 66 65 67 68 70 71 73 76 78 77 75 77 74 72 71 71 72 72 73 74 73 72 72 72 71 71 73 73 72 72 75 75 76 76 77 75 75 75 74
51 46 49 52 52 52 56 52 52 62 62 61 61 63 65 69 73 74 77 77 78 78 77 71 70 69 70 71 73 74 73 73 71 72 72 70 72 73 71 71 72 75 73 74 74 74 73 73 73
46 45 41 51 54 54 54 46 57 59 58 59 61 62 63 65 67 72 76 78 80 79 77 74 73 70 69 70 72 74 74 73 73 72 72 71 71 73 70 69 70 73 73 73 72 72 71 71 71
41 39 39 44 52 51 50 47 55 60 58 55 56 58 61 63 67 69 73 77 80 80 77 74 73 71 70 71 70 70 71 71 72 72 71 71 70 70 70 68 69 72 73 71 71 69 71 68 68
37 37 40 39 47 48 45 44 51 55 55 54 55 57 58 60 64 69 71 75 79 81 78 76 74 72 71 73 72 71 69 69 69 69 70 71 70 70 69 71 69 73 70 69 69 69 69 69 70
40 38 37 43 48 44 43 44 48 52 53 52 54 55 56 58 64 67 69 72 75 77 76 75 73 73 71 72 71 71 68 69 69 73 73 71 71 69 69 72 72 71 68 68 67 69 67 65 65
39 36 37 43 48 45 44 42 48 51 51 53 54 55 56 58 60 63 67 70 72 74 75 75 74 73 73 74 74 73 72 72 74 73 73 73 73 71 71 71 70 69 67 67 66 67 64 65 65
39 36 37 37 43 45 41 41 49 54 55 56 56 56 57 57 58 61 64 67 70 71 74 74 75 74 73 74 73 73 71 71 69 68 70 71 73 73 73 71 70 68 69 66 65 67 68 63 63
33 43 42 39 35 31 42 26 42 52 52 54 54 55 55 57 60 61 63 66 71 70 71 76 75 75 74 74 72 71 71 69 70 72 68 69 71 72 73 71 70 69 68 67 66 67 68 68 62
38 43 41 40 35 32 37 29 43 51 48 50 53 56 53 57 60 60 62 66 60 61 66 69 69 72 72 73 72 70 70 72 72 69 67 67 67 66 66 65 65 67 67 68 67 66 67 69 68
47 41 41 39 32 23 34 34 40 42 35 38 47 46 46 51 58 56 56 56 56 57 58 59 60 57 58 62 66 69 68 67 66 67 65 66 66 63 62 62 62 65 66 67 67 68 67 67 69
42 37 30 28 26 29 40 37 41 38 39 38 39 38 40 42 43 45 46 48 50 52 53 55 56 54 54 52 52 54 57 59 62 66 66 67 66 65 63 64 64 66 67 67 67 66 66 67 66
40 34 29 21 26 30 40 32 36 41 39 37 39 37 40 40 42 41 42 44 46 48 49 50 52 51 51 52 53 53 51 54 56 58 60 64 65 67 68 67 67 67 67 66 65 65 66 66 66
36 32 41 29 34 28 35 37 41 41 37 35 35 36 35 38 40 40 41 41 44 44 43 45 47 48 48 48 49 50 52 53 53 55 56 59 58 60 62 64 65 65 65 66 65 64 64 65 65
41 44 32 33 22 23 33 30 27 30 31 33 32 33 33 36 38 40 40 40 42 42 43 43 45 46 46 47 47 48 50 49 52 52 52 54 55 56 57 58 61 63 65 65 64 63 64 64 65
39 37 37 34 32 26 26 25 31 30 32 31 33 32 33 33 35 37 39 40 40 41 42 42 43 43 44 45 45 46 46 47 48 48 48 49 52 54 55 56 58 60 64 64 63 63 63 62 63
43 38 36 29 30 34 31 24 34 33 33 33 32 32 32 33 34 35 36 37 38 38 39 39 40 41 42 44 44 44 44 46 45 46 47 49 49 52 53 54 55 59 61 65 63 62 62 61 61

GFSSGP_sfc_temp_132.txt.gz
Temp
78 88 91 86 74 75 73 74 80 76 77 83 84 80 81 86 81 78 93 93 90 94 89 81 74 75 75 75 75 75 76 77 77 76 76 76 76 76 76 76 77 77 78 79 79 79 78 77 76
88 85 88 85 70 68 76 78 74 80 81 83 84 83 80 80 91 92 95 90 92 93 88 86 73 74 75 75 75 75 76 77 76 76 76 76 76 76 76 76 76 77 78 79 79 78 77 76 74
84 85 82 78 73 69 73 76 78 79 81 81 82 87 84 84 92 93 93 89 92 91 90 86 73 73 74 74 75 75 75 75 75 75 76 76 76 76 76 75 75 76 77 78 79 77 75 73 73
85 85 82 70 69 75 73 78 77 80 82 82 83 80 88 91 88 91 92 89 91 91 92 75 72 73 74 75 75 75 75 74 74 75 76 76 76 76 75 75 75 76 77 78 77 75 73 72 71
87 83 71 68 71 77 79 80 79 78 81 80 82 80 82 88 93 92 88 88 88 89 90 81 71 73 74 75 75 74 74 73 74 75 75 75 76 75 74 74 74 75 76 76 75 73 72 71 71
77 78 66 66 70 75 79 82 77 77 79 80 78 80 83 91 89 89 87 86 88 86 87 83 73 72 73 74 74 73 73 73 73 74 74 75 75 74 74 74 74 74 74 74 73 72 71 71 71
72 71 67 68 67 70 76 80 76 76 77 79 82 76 85 89 89 88 87 86 85 86 84 83 81 78 71 71 71 71 71 72 72 72 73 73 72 72 73 73 73 73 73 72 72 71 71 71 70
77 72 66 68 66 69 78 77 79 77 76 83 84 77 77 88 91 90 88 86 85 84 84 84 84 83 82 80 70 70 70 71 71 71 71 71 71 71 72 72 73 73 72 72 71 71 70 70 69
76 66 65 68 67 70 75 72 79 81 76 80 80 81 86 89 89 89 88 84 84 83 84 85 85 85 84 84 79 71 70 70 70 72 70 71 84 82 79 77 71 72 71 71 71 70 69 68 68
70 67 68 72 72 68 70 71 74 73 74 75 78 83 85 86 87 86 87 86 85 82 84 87 85 85 85 87 84 82 82 83 82 82 81 83 84 84 84 77 70 71 70 70 70 69 68 70 84
69 64 71 69 68 68 68 69 75 70 69 74 73 78 81 82 83 84 86 88 88 88 86 86 84 84 85 86 84 86 86 85 84 83 83 84 85 84 85 83 81 82 73 82 77 77 82 83 86
60 66 66 68 67 65 65 70 67 70 71 77 77 77 78 78 79 82 85 88 90 88 86 85 85 83 83 88 84 81 84 86 85 85 82 84 84 83 83 84 84 83 83 84 83 84 84 84 83
60 63 64 66 65 66 67 65 66 68 74 76 76 75 75 77 79 83 86 88 90 89 86 85 83 82 83 82 85 83 83 83 85 84 81 84 85 83 84 84 84 84 83 84 82 85 84 83 82
60 60 62 65 65 66 62 65 66 70 75 72 73 74 75 75 77 79 82 84 86 88 88 85 83 82 82 80 82 81 80 82 83 84 80 79 84 83 83 83 84 80 81 84 85 85 84 84 84
60 56 63 63 62 65 66 61 65 71 71 70 72 74 75 76 78 77 79 80 84 86 89 86 82 81 78 77 82 81 81 78 77 79 77 77 81 82 81 81 83 82 80 82 84 82 83 83 84
56 57 55 60 62 64 61 56 68 72 68 68 71 72 71 73 76 79 80 80 84 86 87 87 85 80 77 77 81 83 84 78 77 79 79 75 76 82 79 79 79 84 77 80 81 80 80 80 81
54 53 54 55 61 60 58 55 65 71 69 66 68 70 70 71 74 77 79 81 82 85 85 86 84 80 77 77 79 82 82 80 81 78 77 76 74 76 78 78 76 81 77 76 78 79 78 78 78
50 49 53 53 59 60 56 56 63 68 68 67 68 69 69 70 72 76 78 80 82 84 84 85 86 80 78 76 75 79 81 79 83 83 82 79 74 74 74 78 74 78 81 76 75 74 78 76 78
50 49 50 56 60 53 53 55 60 66 67 66 68 68 69 70 75 76 75 77 77 78 79 82 84 81 79 76 74 75 73 73 77 81 80 81 75 73 72 75 75 76 80 79 73 73 72 72 75
49 48 49 55 56 54 53 53 61 66 68 68 67 67 69 70 71 73 74 74 73 75 77 80 83 83 81 80 78 79 79 79 78 78 79 79 73 72 71 75 80 79 80 77 71 73 69 69 71
50 47 48 47 53 56 52 53 61 65 69 64 60 62 64 65 67 70 71 71 72 72 74 77 82 84 81 81 81 79 80 81 79 80 80 80 79 75 71 73 80 79 76 73 70 71 71 66 67
43 52 49 48 46 41 52 37 54 61 55 51 53 51 48 53 60 64 67 70 71 72 74 76 81 84 83 81 81 76 77 77 80 80 82 82 80 79 78 78 74 74 71 71 69 70 71 72 66
46 52 49 48 46 41 46 41 53 51 38 41 46 43 40 44 51 59 69 70 73 73 73 77 79 83 84 81 80 78 77 79 81 80 79 76 75 78 76 74 73 69 70 68 66 65 67 71 71
53 49 51 48 43 32 45 43 47 36 34 36 38 42 39 39 43 49 54 63 66 68 71 74 76 80 81 76 77 76 76 78 78 71 71 72 71 70 70 68 66 68 63 64 66 67 66 66 68
49 47 41 38 36 38 49 45 35 42 39 37 35 37 37 37 38 41 43 45 49 53 58 59 57 53 57 57 59 68 75 71 71 71 68 67 65 64 65 69 66 62 63 64 67 67 66 66 66
46 43 38 26 34 37 49 42 39 46 47 42 40 37 37 35 36 37 40 42 44 45 50 52 52 51 52 52 53 55 58 61 62 64 65 67 67 70 72 71 72 72 68 70 68 67 67 68 66
38 42 46 35 42 34 46 46 47 47 44 40 35 36 33 34 34 35 37 39 42 43 44 46 50 50 50 52 53 56 56 57 61 60 63 68 70 72 70 71 75 74 73 70 70 68 67 66 67
48 52 39 39 27 27 41 32 31 33 35 36 32 32 32 33 33 34 35 36 40 42 44 46 48 49 50 51 53 56 58 58 59 60 62 62 66 67 67 68 69 64 66 68 68 66 66 65 66
48 44 42 41 39 32 32 28 32 32 33 32 33 32 32 32 32 32 32 34 37 40 42 44 43 44 48 51 53 53 54 56 57 58 59 58 59 61 61 63 66 66 67 67 65 65 64 63 64
48 42 42 33 32 39 35 27 36 34 34 34 32 32 32 33 32 32 32 34 36 37 41 41 42 41 47 50 51 51 51 52 53 54 53 52 57 59 59 62 62 64 66 67 67 67 65 63 62